Regional Weather Roundup
Issued by NWS Albany, NY

Home | Current Version | Previous Version | Graphics & Text | Print | Product List | Glossary Off
Versions: 1 2 3 4 5 6 7 8 9 10 11 12 13 14 15 16 17 18 19 20 21 22 23 24 25 26 27 28 29 30 31 32 33 34 35 36 37 38 39 40 41 42 43 44 45 46 47 48 49 50

000
ASUS41 KALY 291310
RWRALY

NEW YORK STATE HOURLY WEATHER ROUNDUP
NATIONAL WEATHER SERVICE ALBANY NY
900 AM EDT FRI MAY 29 2015

NOTE: "FAIR" INDICATES FEW OR NO CLOUDS BELOW 12,000 FEET WITH NO
SIGNIFICANT WEATHER AND/OR NO OBSTRUCTIONS TO VISIBILITY.

NYZ032-033-038>043-046>054-057>066-NYZ062>081-291400-
EAST


CITY           SKY/WX    TMP DP  RH WIND       PRES   REMARKS
ALBANY         MOSUNNY   68  55  63 CALM      30.33F
GLENS FALLS    SUNNY     65  56  72 E6        30.32F
POUGHKEEPSIE   SUNNY     68  56  65 N6        30.31S
NEWBURGH       SUNNY     66  59  77 VRB5      30.34R
MONTGOMERY     SUNNY     68  58  70 N3        30.33R
WHITE PLAINS   SUNNY     71  56  58 NE7       30.30S
ISLIP          MOSUNNY   71  56  58 NE12      30.28S
NEW YORK CITY  SUNNY     69  54  58 NE8       30.30S
CENTRAL PARK   SUNNY     71  54  54 VRB3      30.33S
$$

NYZ005>009-017-018-044>046-055-056-291400-
CENTRAL


CITY           SKY/WX    TMP DP  RH WIND       PRES   REMARKS
FULTON         SUNNY     66  57  72 S3        30.29S
SYRACUSE       MOSUNNY   68  57  68 VRB5      30.28F
ROME           SUNNY     63  56  78 SE5       30.32F
ELMIRA         PTSUNNY   55  55 100 CALM      30.31F FOG
BINGHAMTON     SUNNY     62  55  77 SE9       30.32F
MONTICELLO     SUNNY     63  55  77 CALM      30.35F
$$

NYZ026>034-041>043-291400-
NORTH


CITY           SKY/WX    TMP DP  RH WIND       PRES   REMARKS
WATERTOWN      SUNNY     67  57  70 W3        30.28S
FORT DRUM      NOT AVBL
MASSENA        SUNNY     64  56  75 CALM      30.30F
SARANAC LAKE   SUNNY     59  56  89 CALM      30.32S
PLATTSBURGH    SUNNY     63  56  78 SE7       30.32S
$$

NYZ001>004-010>016-019>021-291400-
WEST


CITY           SKY/WX    TMP DP  RH WIND       PRES   REMARKS
NIAGARA FALLS  PTSUNNY   70  54  56 S7        30.23F
BUFFALO        PTSUNNY   70  53  54 SE9       30.24F
DUNKIRK        SUNNY     72  57  59 SE10G22   30.23S
JAMESTOWN      SUNNY     64  54  68 SE9       30.28F
WELLSVILLE     SUNNY     64  50  60 SE12G17   30.32S
ROCHESTER      PTSUNNY   66  56  70 SW7       30.27S
PENN YAN       SUNNY     65  55  70 SW8       30.30S
$$

             KEY
       WCI = WIND CHILL INDEX
       VSB = VISIBILITY
       HX  = HEAT INDEX
$$


USA.gov is the U.S. government's official web portal to all federal, state and local government web resources and services.